Regional Weather Roundup
Issued by NWS

Home | Current Version | Previous Version | Graphics & Text | Print | Product List | Glossary On
Versions: 1 2 3 4 5 6 7 8 9 10 11 12 13 14 15 16 17 18 19 20 21 22 23 24 25 26 27 28 29 30 31 32 33 34 35 36 37 38 39 40 41 42 43 44 45 46 47 48 49 50
000
ASUS45 KCYS 131410
RWRWY

WYOMING REGIONAL WEATHER ROUNDUP
NATIONAL WEATHER SERVICE CHEYENNE WY
700 AM MST WED DEC 13 2017

NOTE:  "FAIR" INDICATES FEW OR NO CLOUDS BELOW 12,000 FEET
WITH NO SIGNIFICANT WEATHER AND/OR OBSTRUCTIONS TO VISIBILITY.

WYZ001-131500-
YELLOWSTONE NATIONAL PARK

CITY           SKY/WX    TMP DP  RH WIND       PRES   REMARKS
LK YELLOWSTONE   N/A      9   6  88 CALM      30.29S
W YELLOWSTONE  NOT AVBL

$$
WYZ002>013-054>058-071-098>099-131500-
NORTHERN WYOMING

CITY           SKY/WX    TMP DP  RH WIND       PRES   REMARKS
JACKSON        CLOUDY    16  12  84 CALM      30.29S
CODY           FAIR      26  11  52 S7        30.21R WCI  18
GREYBULL       FAIR      24  15  68 S10       30.19R WCI  14
WORLAND        FAIR      25  16  68 S10       30.18S WCI  15
SHERIDAN       FAIR      35  16  45 CALM      30.17S
BUFFALO        FAIR      36  13  38 N12       30.15R WCI  28
GILLETTE       FAIR      32  14  47 NW14      30.14R WCI  22
HULETT         FAIR      34  18  51 W7        30.12R WCI  28
NEWCASTLE      FAIR      32  14  47 NW20      30.09R WCI  20

$$
WYZ014>020-022>026-101>103-131500-
CENTRAL WYOMING

CITY           SKY/WX    TMP DP  RH WIND       PRES   REMARKS
BIG PINEY      CLOUDY    22   5  48 NW6       30.24R WCI  14
PINEDALE       CLOUDY    28   5  37 CALM      30.24R
DUBOIS         FAIR      28   0  29 NW10      30.20R WCI  19
LANDER         CLOUDY    35  18  49 SW5       30.19S WCI  31
RIVERTON       CLOUDY    33  14  45 W3        30.20S
CASPER         FAIR      19  14  81 CALM      30.18S
DOUGLAS        FAIR      30  14  51 NW9       30.18R WCI  22

$$
WYZ021-027>030-104>119-131500-
SOUTHERN WYOMING

CITY           SKY/WX    TMP DP  RH WIND       PRES   REMARKS
EVANSTON       CLOUDY    29   8  41 S7        30.27F WCI  22
FORT BRIDGER   CLOUDY    36   3  25 W13       30.28F WCI  27
ROCK SPRINGS   CLOUDY    31   6  35 W9        30.24S WCI  23
DIXON          CLOUDY    22  16  76 E5        30.27R WCI  16
RAWLINS        FAIR      23  11  60 CALM      30.21S
SARATOGA       FAIR      21  12  68 S13       30.22S WCI   9
LARAMIE        FAIR      23   4  44 W9        30.17R WCI  13
CHEYENNE       FAIR      34   8  33 N8        30.15R WCI  27
TORRINGTON     FAIR      38  13  35 NW13      30.11R WCI  30
PINE BLUFFS    FAIR      32   9  37 MISG      30.16R

$$



USA.gov is the U.S. government's official web portal to all federal, state and local government web resources and services.